Location: Bartlow
(52.0833°N, 0.3167°E)
Time: 20:02:50
(UTC+00:00)

Cosmos 44 - Pass Details

Date: 26 September 2023
Orbit: 570 x 788 km, 65.1° (Epoch: 09 December)

Event Time Altitude Azimuth Distance (km) Brightness Sun altitude
Exits shadow 04:39:08 16° 261° (W) 1,847 4.8 -11.7°
Maximum altitude 04:42:53 41° 326° (NW) 1,084 4.1 -11.2°
Drops below altitude 10° 04:47:58 10° 37° (NE) 2,334 6.8 -10.4°
Sets 04:50:34 0° 44° (NE) 3,280 7.8 -10.0°
